When you browse on this site, cookies collect data to enhance your experience and personalize the content and advertising you see.
Visit our Privacy Policy to learn more. By continuing to use the site, you agree to this use of cookies and data.
  • en Suisse
  • Liste des pays
  • À 7 jours
  • Température de l'eau
  • Carte météo
  • Widgets météo
  • user-avatar
    Se connecter

    Météo par heure à Canillo

    Ce jour, 15 Septembre, Dimanche

    Heure Température Précipitation Vent Pression Humidité
    00:00 +12°C° 0 mm 2 m/s 625 mmHg 74%
    01:00 +12°C° 0 mm 2 m/s 624 mmHg 73%
    02:00 +12°C° 0 mm 2 m/s 624 mmHg 71%
    03:00 +12°C° 0 mm 2 m/s 624 mmHg 69%
    04:00 +12°C° 0.2 mm 2 m/s 624 mmHg 72%
    05:00 +12°C° 0.2 mm 1 m/s 624 mmHg 75%
    06:00 +12°C° 0.2 mm 1 m/s 624 mmHg 77%
    07:00 +14°C° 0 mm 1 m/s 625 mmHg 72%
    08:00 +16°C° 0 mm 1 m/s 626 mmHg 66%
    09:00 +20°C° 0 mm 1 m/s 626 mmHg 60%
    10:00 +21°C° 0.3 mm 1 m/s 627 mmHg 57%
    11:00 +21°C° 0.3 mm 1 m/s 627 mmHg 53%
    12:00 +21°C° 0.3 mm 2 m/s 627 mmHg 50%
    13:00 +22°C° 0.2 mm 1 m/s 627 mmHg 50%
    14:00 +22°C° 0.2 mm 1 m/s 626 mmHg 51%
    15:00 +22°C° 0.2 mm 1 m/s 626 mmHg 51%
    16:00 +20°C° 0 mm 1 m/s 625 mmHg 58%
    17:00 +18°C° 0 mm 1 m/s 624 mmHg 66%
    18:00 +15°C° 0 mm 1 m/s 623 mmHg 73%
    19:00 +14°C° 0 mm 1 m/s 623 mmHg 73%
    20:00 +14°C° 0 mm 1 m/s 623 mmHg 73%
    21:00 +13°C° 0 mm 1 m/s 623 mmHg 73%
    22:00 +13°C° 0 mm 1 m/s 623 mmHg 71%
    23:00 +13°C° 0 mm 1 m/s 623 mmHg 70%

    Demain, 16 Septembre, Lundi

    Heure Température Précipitation Vent Pression Humidité
    00:00 +13°C° 0 mm 1 m/s 623 mmHg 68%
    01:00 +13°C° 0 mm 1 m/s 622 mmHg 68%
    02:00 +12°C° 0 mm 1 m/s 622 mmHg 69%
    03:00 +12°C° 0 mm 1 m/s 621 mmHg 69%
    04:00 +12°C° 0.1 mm 1 m/s 621 mmHg 69%
    05:00 +12°C° 0.1 mm 1 m/s 621 mmHg 68%
    06:00 +12°C° 0.1 mm 1 m/s 621 mmHg 68%
    07:00 +14°C° 0 mm 1 m/s 623 mmHg 64%
    08:00 +18°C° 0 mm 1 m/s 624 mmHg 60%
    09:00 +20°C° 0 mm 1 m/s 625 mmHg 55%
    10:00 +21°C° 0.3 mm 1 m/s 625 mmHg 55%
    11:00 +20°C° 0.3 mm 2 m/s 625 mmHg 55%
    12:00 +21°C° 0.3 mm 2 m/s 625 mmHg 55%
    13:00 +20°C° 0.4 mm 2 m/s 624 mmHg 57%
    14:00 +20°C° 0.4 mm 2 m/s 624 mmHg 60%
    15:00 +21°C° 0.4 mm 1 m/s 623 mmHg 62%
    16:00 +19°C° 0.4 mm 1 m/s 623 mmHg 69%
    17:00 +16°C° 0.4 mm 1 m/s 622 mmHg 77%
    18:00 +14°C° 0.4 mm 1 m/s 621 mmHg 85%
    19:00 +14°C° 0 mm 1 m/s 621 mmHg 86%
    20:00 +13°C° 0 mm 1 m/s 621 mmHg 88%
    21:00 +13°C° 0 mm 1 m/s 621 mmHg 90%
    22:00 +12°C° 0 mm 1 m/s 621 mmHg 90%
    23:00 +12°C° 0 mm 1 m/s 620 mmHg 90%

    Après-demain, 17 Septembre, Mardi

    Heure Température Précipitation Vent Pression Humidité
    00:00 +12°C° 0 mm 1 m/s 620 mmHg 91%
    01:00 +11°C° 0 mm 1 m/s 620 mmHg 91%
    02:00 +11°C° 0 mm 1 m/s 620 mmHg 90%
    03:00 +11°C° 0 mm 1 m/s 620 mmHg 90%
    04:00 +11°C° 0 mm 1 m/s 620 mmHg 89%
    05:00 +11°C° 0 mm 1 m/s 619 mmHg 88%
    06:00 +11°C° 0 mm 1 m/s 619 mmHg 87%
    07:00 +13°C° 0 mm 1 m/s 621 mmHg 79%
    08:00 +16°C° 0 mm 1 m/s 622 mmHg 70%
    09:00 +18°C° 0 mm 0 m/s 623 mmHg 62%
    10:00 +21°C° 0 mm 1 m/s 623 mmHg 58%
    11:00 +21°C° 0 mm 1 m/s 623 mmHg 54%
    12:00 +22°C° 0 mm 1 m/s 623 mmHg 50%
    13:00 +21°C° 0.4 mm 1 m/s 622 mmHg 56%
    14:00 +21°C° 0.4 mm 1 m/s 622 mmHg 61%
    15:00 +20°C° 0.4 mm 1 m/s 621 mmHg 67%
    16:00 +18°C° 0.5 mm 1 m/s 620 mmHg 73%
    17:00 +15°C° 0.5 mm 0 m/s 620 mmHg 80%
    18:00 +13°C° 0.5 mm 0 m/s 619 mmHg 86%
    19:00 +13°C° 0.2 mm 0 m/s 619 mmHg 86%
    20:00 +13°C° 0.2 mm 1 m/s 619 mmHg 87%
    21:00 +13°C° 0.2 mm 1 m/s 619 mmHg 88%
    22:00 +13°C° 0.7 mm 1 m/s 619 mmHg 89%
    23:00 +12°C° 0.7 mm 1 m/s 619 mmHg 89%

    18 Septembre, Mercredi

    Heure Température Précipitation Vent Pression Humidité
    00:00 +12°C° 0.7 mm 1 m/s 618 mmHg 90%
    01:00 +12°C° 0 mm 1 m/s 618 mmHg 90%
    02:00 +11°C° 0 mm 1 m/s 618 mmHg 89%
    03:00 +11°C° 0 mm 1 m/s 618 mmHg 88%
    04:00 +11°C° 0 mm 1 m/s 618 mmHg 88%
    05:00 +11°C° 0 mm 1 m/s 618 mmHg 88%
    06:00 +11°C° 0 mm 1 m/s 618 mmHg 88%
    07:00 +13°C° 0 mm 1 m/s 619 mmHg 80%
    08:00 +16°C° 0 mm 1 m/s 620 mmHg 72%
    09:00 +17°C° 0 mm 0 m/s 622 mmHg 64%
    10:00 +20°C° 0.5 mm 1 m/s 622 mmHg 63%
    11:00 +20°C° 0.5 mm 1 m/s 622 mmHg 61%
    12:00 +20°C° 0.5 mm 1 m/s 622 mmHg 60%
    13:00 +20°C° 1.3 mm 1 m/s 621 mmHg 63%
    14:00 +18°C° 1.3 mm 2 m/s 621 mmHg 67%
    15:00 +18°C° 1.3 mm 2 m/s 620 mmHg 70%
    16:00 +16°C° 1.7 mm 2 m/s 620 mmHg 76%
    17:00 +14°C° 1.7 mm 1 m/s 619 mmHg 82%
    18:00 +13°C° 1.7 mm 1 m/s 618 mmHg 89%
    19:00 +12°C° 1.7 mm 1 m/s 618 mmHg 88%
    20:00 +11°C° 1.7 mm 1 m/s 619 mmHg 88%
    21:00 +11°C° 1.7 mm 1 m/s 619 mmHg 87%
    22:00 +11°C° 0.2 mm 1 m/s 619 mmHg 85%
    23:00 +11°C° 0.2 mm 1 m/s 619 mmHg 82%

    19 Septembre, Jeudi

    Heure Température Précipitation Vent Pression Humidité
    00:00 +11°C° 0.2 mm 1 m/s 619 mmHg 80%
    01:00 +11°C° 0 mm 1 m/s 619 mmHg 80%
    02:00 +10°C° 0 mm 1 m/s 619 mmHg 79%
    03:00 +10°C° 0 mm 1 m/s 618 mmHg 79%
    04:00 +10°C° 0 mm 1 m/s 618 mmHg 80%
    05:00 +10°C° 0 mm 1 m/s 618 mmHg 81%
    06:00 +10°C° 0 mm 1 m/s 618 mmHg 83%
    07:00 +12°C° 0.1 mm 1 m/s 620 mmHg 78%
    08:00 +14°C° 0.1 mm 1 m/s 621 mmHg 73%
    09:00 +16°C° 0.1 mm 1 m/s 622 mmHg 68%
    10:00 +16°C° 1.3 mm 1 m/s 622 mmHg 70%
    11:00 +18°C° 1.3 mm 1 m/s 622 mmHg 71%
    12:00 +17°C° 1.3 mm 2 m/s 622 mmHg 72%
    13:00 +16°C° 1.9 mm 1 m/s 622 mmHg 75%
    14:00 +16°C° 1.9 mm 1 m/s 621 mmHg 78%
    15:00 +15°C° 1.9 mm 1 m/s 621 mmHg 81%
    16:00 +14°C° 1.3 mm 1 m/s 621 mmHg 85%
    17:00 +13°C° 1.3 mm 1 m/s 620 mmHg 88%
    18:00 +11°C° 1.3 mm 0 m/s 620 mmHg 92%
    19:00 +11°C° 0.1 mm 1 m/s 620 mmHg 91%
    20:00 +11°C° 0.1 mm 1 m/s 621 mmHg 91%
    21:00 +10°C° 0.1 mm 1 m/s 621 mmHg 90%
    22:00 +10°C° 0 mm 1 m/s 621 mmHg 90%
    23:00 +10°C° 0 mm 1 m/s 621 mmHg 89%

    20 Septembre, Vendredi

    Heure Température Précipitation Vent Pression Humidité
    00:00 +9°C° 0 mm 1 m/s 621 mmHg 88%
    01:00 +9°C° 0 mm 1 m/s 621 mmHg 88%
    02:00 +9°C° 0 mm 1 m/s 621 mmHg 88%
    03:00 +9°C° 0 mm 1 m/s 621 mmHg 88%
    04:00 +9°C° 0 mm 1 m/s 621 mmHg 89%
    05:00 +9°C° 0 mm 1 m/s 621 mmHg 89%
    06:00 +9°C° 0 mm 1 m/s 621 mmHg 90%
    07:00 +11°C° 0 mm 1 m/s 622 mmHg 84%
    08:00 +13°C° 0 mm 1 m/s 623 mmHg 79%
    09:00 +15°C° 0 mm 1 m/s 624 mmHg 73%
    10:00 +16°C° 0.2 mm 1 m/s 624 mmHg 71%
    11:00 +18°C° 0.2 mm 1 m/s 625 mmHg 69%
    12:00 +17°C° 0.2 mm 2 m/s 625 mmHg 66%
    13:00 +18°C° 0.8 mm 1 m/s 624 mmHg 71%
    14:00 +16°C° 0.8 mm 1 m/s 624 mmHg 75%
    15:00 +16°C° 0.8 mm 1 m/s 623 mmHg 80%
    16:00 +14°C° 0.4 mm 1 m/s 623 mmHg 84%
    17:00 +13°C° 0.4 mm 2 m/s 622 mmHg 89%
    18:00 +12°C° 0.4 mm 2 m/s 622 mmHg 93%
    19:00 +11°C° 0 mm 1 m/s 622 mmHg 94%
    20:00 +11°C° 0 mm 1 m/s 622 mmHg 95%
    21:00 +11°C° 0 mm 1 m/s 622 mmHg 96%
    22:00 +10°C° 0 mm 1 m/s 622 mmHg 95%
    23:00 +10°C° 0 mm 1 m/s 621 mmHg 94%
    Voir plus